Home   Weather   Thiruvananthapuram   Past weeks

Flag for India Past Weather in Thiruvananthapuram, Kerala, India — Yesterday and Last 2 Weeks

Now
84 °F

Scattered clouds.


Feels Like: 94 °F
Forecast: 78 / 85 °F
Wind: 12 mph from Northwest

Location: Thiruvananthapuram

Current Time: Sep 27, 2016 at 10:56:53 AM

Latest Report: Sep 27, 2016 at 10:30 AM


Visibility: 3 mi

Pressure: 29.83 "Hg

Humidity: 79%

Dew Point: 77 °F

Location of ThiruvananthapuramLocation

Past Weather in Thiruvananthapuram — Graph

°F

Thiruvananthapuram Temperature Yesterday

Maximum temperature yesterday: 86 °F (at 10:00 AM)
Minimum temperature yesterday: 77 °F (at 6:00 AM)
Average temperature yesterday: 82 °F

High & Low Weather Summary for the Past Weeks

 TemperatureHumidityPressure
High88 °F (Sep 14, 10:00 AM)94% (Sep 20, 3:00 AM)29.92 "Hg (Sep 20, 3:00 AM)
Low77 °F (Sep 18, 10:30 AM)59% (Sep 23, 12:00 PM)29.68 "Hg (Sep 24, 2:30 PM)
Average82 °F81%29.79 "Hg
* Reported Sep 12 9:30 AM — Sep 27 9:30 AM, Thiruvananthapuram, Weather by CustomWeather, © 2016

Note: Actual official high and low records may vary slightly from our data, if they occured in-between our weather recording intervals... More about our weather records

Advertising

Thiruvananthapuram Weather History for the Previous 24 Hours

Scroll right to see more
 ConditionsComfort  
Time TempWeatherWind HumidityBarometerVisibility
9:30 AM
Tue, Sep 27
82 °FScattered clouds.10 mph84%29.86 "Hg4 mi
9:00 AM84 °FScattered clouds.14 mph74%29.86 "Hg4 mi
8:30 AM84 °FScattered clouds.9 mph74%29.86 "Hg4 mi
8:00 AM82 °FScattered clouds.10 mph79%29.83 "Hg3 mi
7:30 AM81 °FScattered clouds.10 mph84%29.83 "Hg3 mi
7:00 AM79 °FScattered clouds.8 mph89%29.83 "Hg2 mi
6:30 AM79 °FPassing clouds.8 mph89%29.80 "Hg2 mi
6:00 AM79 °FPartly cloudy.7 mph89%29.80 "Hg2 mi
5:30 AM79 °FPassing clouds.7 mph89%29.80 "Hg2 mi
5:00 AM79 °FHaze.7 mph89%29.77 "Hg2 mi
4:30 AM79 °FHaze.7 mph89%29.77 "Hg2 mi
4:00 AM81 °FPartly cloudy.8 mph84%29.77 "Hg2 mi
3:30 AM81 °FPartly cloudy.N/A84%29.77 "Hg2 mi
3:00 AM81 °FHaze.8 mph84%29.77 "Hg2 mi
2:30 AM79 °FPassing clouds.No wind89%29.77 "Hg2 mi
2:00 AM81 °FPassing clouds.8 mph84%29.80 "Hg2 mi
1:30 AM81 °FPassing clouds.12 mph84%29.80 "Hg2 mi
1:00 AM81 °FPassing clouds.10 mph84%29.80 "Hg2 mi
12:30 AM81 °FPassing clouds.8 mph84%29.83 "Hg2 mi
12:00 AM81 °FPassing clouds.8 mph84%29.83 "Hg2 mi
11:30 PM
Mon, Sep 26
81 °FPassing clouds.9 mph84%29.83 "Hg2 mi
11:00 PM81 °FPassing clouds.8 mph84%29.83 "Hg2 mi
10:30 PM81 °FPassing clouds.8 mph84%29.83 "Hg2 mi
10:00 PM81 °FHaze.8 mph84%29.83 "Hg2 mi
9:30 PM81 °FHaze.8 mph84%29.83 "Hg2 mi
9:00 PM81 °FHaze.7 mph84%29.83 "Hg2 mi
8:30 PM81 °FPassing clouds.8 mph84%29.83 "Hg2 mi
8:00 PM81 °FHaze.9 mph89%29.80 "Hg2 mi
7:30 PM81 °FHaze.10 mph89%29.80 "Hg2 mi
7:00 PM81 °FHaze.12 mph89%29.77 "Hg2 mi
6:30 PM81 °FHaze.13 mph89%29.77 "Hg3 mi
6:00 PM82 °FHaze.13 mph84%29.74 "Hg3 mi
5:30 PM82 °FPassing clouds.14 mph84%29.74 "Hg4 mi
5:00 PM84 °FScattered clouds.12 mph74%29.74 "Hg4 mi
4:30 PM84 °FScattered clouds.12 mph79%29.74 "Hg4 mi
4:00 PM84 °FScattered clouds.12 mph74%29.71 "Hg4 mi
3:30 PM84 °FScattered clouds.12 mph79%29.71 "Hg4 mi
3:00 PM84 °FScattered clouds.12 mph74%29.71 "Hg4 mi
2:30 PM86 °FScattered clouds.12 mph70%29.74 "Hg4 mi
2:00 PM86 °FScattered clouds.12 mph70%29.74 "Hg4 mi
1:00 PM84 °FScattered clouds.16 mph74%29.77 "Hg4 mi
12:30 PM84 °FScattered clouds.13 mph74%29.77 "Hg4 mi
12:00 PM84 °FScattered clouds.13 mph74%29.80 "Hg4 mi
11:30 AM84 °FScattered clouds.17 mph70%29.80 "Hg4 mi
11:00 AM86 °FScattered clouds.15 mph66%29.80 "Hg4 mi
10:30 AM84 °FScattered clouds.17 mph70%29.83 "Hg4 mi
10:00 AM86 °FScattered clouds.10 mph66%29.83 "Hg4 mi
Weather by CustomWeather, © 2016

See weather overviewHow to use our weather pages